owner,sensor,date,latitude,longitude,vertical_datum,wind_speed,wind_to_direction,wind_speed_of_gust,qcFlag 
TABS,ioos:station:wmo:42043:1,2007-01-01T00:00:00Z,28.9818,-94.9186,4.0,3.582178108,293.7025905,4.51,'11111222,11111222,11111222' 
TABS,ioos:station:wmo:42043:1,2007-01-01T00:30:00Z,28.9818,-94.9186,4.0,5.277309921,313.3107004,6.88,'11111222,11111222,11111222' 
TABS,ioos:station:wmo:42043:1,2007-01-01T01:00:00Z,28.9818,-94.9186,4.0,5.524137942,313.6062935,7.17,'11111222,11111222,11111222' 
TABS,ioos:station:wmo:42043:1,2007-01-01T01:30:00Z,28.9818,-94.9186,4.0,5.280492401,317.6094186,7.74,'11111222,11111222,11111222' 
TABS,ioos:station:wmo:42043:1,2007-01-01T02:00:00Z,28.9818,-94.9186,4.0,6.11058917,327.0899929,7.82,'11111222,11111222,11111222' 
TABS,ioos:station:wmo:42043:1,2007-01-01T02:30:00Z,28.9818,-94.9186,4.0,6.542369601,337.6292339,9.03,'11111222,11111222,11111222' 
TABS,ioos:station:wmo:42043:1,2007-01-01T03:00:00Z,28.9818,-94.9186,4.0,5.632024503,341.4683724,7.56,'11111222,11111222,11111222' 
TABS,ioos:station:wmo:42043:1,2007-01-01T03:30:00Z,28.9818,-94.9186,4.0,6.612669658,338.4397761,8.12,'11111222,11111222,11111222' 
TABS,ioos:station:wmo:42043:1,2007-01-01T04:00:00Z,28.9818,-94.9186,4.0,6.46734103,342.2652847,8.44,'11111222,11111222,11111222' 
TABS,ioos:station:wmo:42043:1,2007-01-01T04:30:00Z,28.9818,-94.9186,4.0,5.917093881,352.0340336,7.49,'11111222,11111222,11111222' 
TABS,ioos:station:wmo:42043:1,2007-01-01T05:00:00Z,28.9818,-94.9186,4.0,5.746529387,344.972069,7.32,'11111222,11111222,11111222' 
TABS,ioos:station:wmo:42043:1,2007-01-01T05:30:00Z,28.9818,-94.9186,4.0,5.949495777,346.2905786,7.61,'11111222,11111222,11111222' 
TABS,ioos:station:wmo:42043:1,2007-01-01T06:00:00Z,28.9818,-94.9186,4.0,5.844467469,350.843708,7.61,'11111222,11111222,11111222' 
TABS,ioos:station:wmo:42043:1,2007-01-01T06:30:00Z,28.9818,-94.9186,4.0,5.676486589,342.0436664,7.57,'11111222,11111222,11111222' 
TABS,ioos:station:wmo:42043:1,2007-01-01T07:00:00Z,28.9818,-94.9186,4.0,6.32455532,341.5648838,7.83,'11111222,11111222,11111222' 
TABS,ioos:station:wmo:42043:1,2007-01-01T07:30:00Z,28.9818,-94.9186,4.0,6.777470029,342.3936478,8.45,'11111222,11111222,11111222' 
TABS,ioos:station:wmo:42043:1,2007-01-01T08:00:00Z,28.9818,-94.9186,4.0,7.264137939,346.3844408,9.29,'11111222,11111222,11111222' 
TABS,ioos:station:wmo:42043:1,2007-01-01T08:30:00Z,28.9818,-94.9186,4.0,7.416987259,346.4319763,9.76,'11111222,11111222,11111222' 
TABS,ioos:station:wmo:42043:1,2007-01-01T09:00:00Z,28.9818,-94.9186,4.0,7.691722824,346.8488716,9.88,'11111222,11111222,11111222' 
TABS,ioos:station:wmo:42043:1,2007-01-01T09:30:00Z,28.9818,-94.9186,4.0,8.106275347,346.7350176,10.77,'11111222,11111222,11111222' 
TABS,ioos:station:wmo:42043:1,2007-01-01T10:00:00Z,28.9818,-94.9186,4.0,7.976778798,352.5807859,10.45,'11111222,11111222,11111222' 
TABS,ioos:station:wmo:42043:1,2007-01-01T10:30:00Z,28.9818,-94.9186,4.0,8.650855449,355.1591562,11.17,'11111222,11111222,11111222' 
TABS,ioos:station:wmo:42043:1,2007-01-01T11:00:00Z,28.9818,-94.9186,4.0,7.511125082,359.0080865,9.89,'11111222,11144222,11111222' 
TABS,ioos:station:wmo:42043:1,2007-01-01T11:30:00Z,28.9818,-94.9186,4.0,6.813992956,12.97546857,8.84,'11111222,11111222,11111222' 
TABS,ioos:station:wmo:42043:1,2007-01-01T12:00:00Z,28.9818,-94.9186,4.0,7.364305806,5.5323129,9.84,'11111222,11111222,11111222' 
TABS,ioos:station:wmo:42043:1,2007-01-01T12:30:00Z,28.9818,-94.9186,4.0,7.350979527,0.93514555,9.19,'11111222,11111222,11111222' 
TABS,ioos:station:wmo:42043:1,2007-01-01T13:00:00Z,28.9818,-94.9186,4.0,6.980458438,359.3431347,9.34,'11111222,11144222,11111222' 
TABS,ioos:station:wmo:42043:1,2007-01-01T13:30:00Z,28.9818,-94.9186,4.0,6.633015905,1.727640995,8.44,'11111222,11111222,11111222' 
TABS,ioos:station:wmo:42043:1,2007-01-01T14:00:00Z,28.9818,-94.9186,4.0,6.593034203,358.2614568,8.9,'11111222,11111222,11111222' 
TABS,ioos:station:wmo:42043:1,2007-01-01T14:30:00Z,28.9818,-94.9186,4.0,5.79711135,354.4563953,7.44,'11111222,11111222,11111222' 
TABS,ioos:station:wmo:42043:1,2007-01-01T15:00:00Z,28.9818,-94.9186,4.0,5.240400748,356.389363,6.75,'11111222,11111222,11111222' 
TABS,ioos:station:wmo:42043:1,2007-01-01T15:30:00Z,28.9818,-94.9186,4.0,4.848690545,349.6632596,6.73,'11111222,11111222,11111222' 
TABS,ioos:station:wmo:42043:1,2007-01-01T16:00:00Z,28.9818,-94.9186,4.0,4.280770959,345.8012687,6.09,'11111222,11111222,11111222' 
TABS,ioos:station:wmo:42043:1,2007-01-01T16:30:00Z,28.9818,-94.9186,4.0,3.887840017,343.1029653,5.92,'11111222,11111222,11111222' 
TABS,ioos:station:wmo:42043:1,2007-01-01T17:00:00Z,28.9818,-94.9186,4.0,3.77033155,340.3153447,5.51,'11111222,11111222,11111222' 
TABS,ioos:station:wmo:42043:1,2007-01-01T17:30:00Z,28.9818,-94.9186,4.0,3.46554469,350.7005696,5.49,'11111222,11111222,11111222' 
TABS,ioos:station:wmo:42043:1,2007-01-01T18:00:00Z,28.9818,-94.9186,4.0,3.660833238,343.4954668,5.3,'11111222,11111222,11111222' 
TABS,ioos:station:wmo:42043:1,2007-01-01T18:30:00Z,28.9818,-94.9186,4.0,1.595305613,339.0654701,3.64,'11111222,11111222,11111222' 
TABS,ioos:station:wmo:42043:1,2007-01-01T19:00:00Z,28.9818,-94.9186,4.0,3.532039071,1.946767114,4.83,'11111222,11111222,11111222' 
TABS,ioos:station:wmo:42043:1,2007-01-01T19:30:00Z,28.9818,-94.9186,4.0,3.082336776,357.7686202,4.5,'11111222,11111222,11111222' 
TABS,ioos:station:wmo:42043:1,2007-01-01T20:00:00Z,28.9818,-94.9186,4.0,2.470323865,359.0720059,3.69,'11111222,11144222,11111222' 
TABS,ioos:station:wmo:42043:1,2007-01-01T20:30:00Z,28.9818,-94.9186,4.0,2.032461562,2.819955419,3.12,'11111222,11111222,11111222' 
TABS,ioos:station:wmo:42043:1,2007-01-01T21:00:00Z,28.9818,-94.9186,4.0,2.503197955,345.1863601,3.46,'11111222,11111222,11111222' 
TABS,ioos:station:wmo:42043:1,2007-01-01T21:30:00Z,28.9818,-94.9186,4.0,2.531422525,27.27334586,3.82,'11111222,11111222,11111222' 
TABS,ioos:station:wmo:42043:1,2007-01-01T22:00:00Z,28.9818,-94.9186,4.0,2.866862396,25.84973746,3.92,'11111222,11111222,11111222' 
TABS,ioos:station:wmo:42043:1,2007-01-01T22:30:00Z,28.9818,-94.9186,4.0,2.898223594,25.76905691,4.4,'11111222,11111222,11111222' 
TABS,ioos:station:wmo:42043:1,2007-01-01T23:00:00Z,28.9818,-94.9186,4.0,3.966787113,26.50018376,4.95,'11111222,11111222,11111222' 
TABS,ioos:station:wmo:42043:1,2007-01-01T23:30:00Z,28.9818,-94.9186,4.0,4.566683698,17.7205206,6.23,'11111222,11111222,11111222' 
TABS,ioos:station:wmo:42043:1,2007-01-02T00:00:00Z,28.9818,-94.9186,4.0,4.88574457,18.2492731,6.35,'11111222,11111222,11111222' 
TABS,ioos:station:wmo:42043:1,2007-01-02T00:30:00Z,28.9818,-94.9186,4.0,5.845417008,24.24088592,7.37,'11111222,11111222,11111222' 
TABS,ioos:station:wmo:42043:1,2007-01-02T01:00:00Z,28.9818,-94.9186,4.0,6.913501284,21.55491525,8.63,'11111222,11111222,11111222' 
TABS,ioos:station:wmo:42043:1,2007-01-02T01:30:00Z,28.9818,-94.9186,4.0,6.214772723,28.33794358,8.16,'11111222,11111222,11111222' 
TABS,ioos:station:wmo:42043:1,2007-01-02T02:00:00Z,28.9818,-94.9186,4.0,6.300745988,35.17796977,7.87,'11111222,11111222,11111222' 
TABS,ioos:station:wmo:42043:1,2007-01-02T02:30:00Z,28.9818,-94.9186,4.0,6.69005979,35.44778208,8.57,'11111222,11111222,11111222' 
TABS,ioos:station:wmo:42043:1,2007-01-02T03:00:00Z,28.9818,-94.9186,4.0,6.652014732,36.749015,8.96,'11111222,11111222,11111222' 
TABS,ioos:station:wmo:42043:1,2007-01-02T03:30:00Z,28.9818,-94.9186,4.0,7.340027248,37.02571951,9.1,'11111222,11111222,11111222' 
TABS,ioos:station:wmo:42043:1,2007-01-02T04:00:00Z,28.9818,-94.9186,4.0,7.254929359,45.11137159,8.96,'11111222,11111222,11111222' 
TABS,ioos:station:wmo:42043:1,2007-01-02T04:30:00Z,28.9818,-94.9186,4.0,7.400675645,36.09538262,9.63,'11111222,11111222,11111222' 
TABS,ioos:station:wmo:42043:1,2007-01-02T05:00:00Z,28.9818,-94.9186,4.0,6.890457169,38.39978276,8.77,'11111222,11111222,11111222' 
TABS,ioos:station:wmo:42043:1,2007-01-02T05:30:00Z,28.9818,-94.9186,4.0,7.00285656,35.23302775,9.12,'11111222,11111222,11111222' 
TABS,ioos:station:wmo:42043:1,2007-01-02T06:00:00Z,28.9818,-94.9186,4.0,6.711259196,42.22169475,8.61,'11111222,11111222,11111222' 
TABS,ioos:station:wmo:42043:1,2007-01-02T06:30:00Z,28.9818,-94.9186,4.0,6.180436878,39.48478562,8.22,'11111222,11111222,11111222' 
TABS,ioos:station:wmo:42043:1,2007-01-02T07:00:00Z,28.9818,-94.9186,4.0,5.977624946,41.74467054,7.76,'11111222,11111222,11111222' 
TABS,ioos:station:wmo:42043:1,2007-01-02T07:30:00Z,28.9818,-94.9186,4.0,5.842336861,50.06853554,7.72,'11111222,11111222,11111222' 
TABS,ioos:station:wmo:42043:1,2007-01-02T08:00:00Z,28.9818,-94.9186,4.0,6.227399136,54.34433436,8.8,'11111222,11111222,11111222' 
TABS,ioos:station:wmo:42043:1,2007-01-02T08:30:00Z,28.9818,-94.9186,4.0,6.684108018,53.45550241,8.76,'11111222,11111222,11111222' 
TABS,ioos:station:wmo:42043:1,2007-01-02T09:00:00Z,28.9818,-94.9186,4.0,5.985215117,56.30959034,7.99,'11111222,11111222,11111222' 
TABS,ioos:station:wmo:42043:1,2007-01-02T09:30:00Z,28.9818,-94.9186,4.0,6.738018997,53.26582117,9.12,'11111222,11111222,11111222' 
TABS,ioos:station:wmo:42043:1,2007-01-02T10:00:00Z,28.9818,-94.9186,4.0,6.721904492,51.76584331,8.69,'11111222,11111222,11111222' 
TABS,ioos:station:wmo:42043:1,2007-01-02T10:30:00Z,28.9818,-94.9186,4.0,6.74876285,60.43378274,8.8,'11111222,11111222,11111222' 
TABS,ioos:station:wmo:42043:1,2007-01-02T11:00:00Z,28.9818,-94.9186,4.0,7.094737486,55.97361503,9.29,'11111222,11111222,11111222' 
TABS,ioos:station:wmo:42043:1,2007-01-02T11:30:00Z,28.9818,-94.9186,4.0,7.715763086,57.81322999,9.65,'11111222,11111222,11111222' 
TABS,ioos:station:wmo:42043:1,2007-01-02T12:00:00Z,28.9818,-94.9186,4.0,7.533870187,60.23590147,9.52,'11111222,11111222,11111222' 
TABS,ioos:station:wmo:42043:1,2007-01-02T12:30:00Z,28.9818,-94.9186,4.0,7.179143403,60.36365665,9.0,'11111222,11111222,11111222' 
TABS,ioos:station:wmo:42043:1,2007-01-02T13:00:00Z,28.9818,-94.9186,4.0,6.928953745,59.65988227,9.26,'11111222,11111222,11111222' 
TABS,ioos:station:wmo:42043:1,2007-01-02T13:30:00Z,28.9818,-94.9186,4.0,6.358144383,57.45934859,8.3,'11111222,11111222,11111222' 
TABS,ioos:station:wmo:42043:1,2007-01-02T14:00:00Z,28.9818,-94.9186,4.0,6.782779666,58.93448684,8.75,'11111222,11111222,11111222' 
TABS,ioos:station:wmo:42043:1,2007-01-02T14:30:00Z,28.9818,-94.9186,4.0,6.502561034,63.71042663,8.09,'11111222,11111222,11111222' 
TABS,ioos:station:wmo:42043:1,2007-01-02T15:00:00Z,28.9818,-94.9186,4.0,5.568060704,53.39731003,7.79,'11111222,11111222,11111222' 
TABS,ioos:station:wmo:42043:1,2007-01-02T15:30:00Z,28.9818,-94.9186,4.0,5.004607877,54.02279292,6.37,'11111222,11111222,11111222' 
TABS,ioos:station:wmo:42043:1,2007-01-02T16:00:00Z,28.9818,-94.9186,4.0,4.365879064,42.86485456,5.7,'11111222,11111222,11111222' 
TABS,ioos:station:wmo:42043:1,2007-01-02T16:30:00Z,28.9818,-94.9186,4.0,4.015432729,39.23890685,5.76,'11111222,11111222,11111222' 
TABS,ioos:station:wmo:42043:1,2007-01-02T17:00:00Z,28.9818,-94.9186,4.0,4.608709147,38.83424789,6.23,'11111222,11111222,11111222' 
TABS,ioos:station:wmo:42043:1,2007-01-02T17:30:00Z,28.9818,-94.9186,4.0,4.55405314,37.14638937,6.39,'11111222,11111222,11111222' 
TABS,ioos:station:wmo:42043:1,2007-01-02T18:00:00Z,28.9818,-94.9186,4.0,4.330011547,36.7372787,5.9,'11111222,11111222,11111222' 
TABS,ioos:station:wmo:42043:1,2007-01-02T18:30:00Z,28.9818,-94.9186,4.0,4.144828103,43.63110671,5.94,'11111222,11111222,11111222' 
TABS,ioos:station:wmo:42043:1,2007-01-02T19:00:00Z,28.9818,-94.9186,4.0,4.712918416,47.23531598,6.5,'11111222,11111222,11111222' 
TABS,ioos:station:wmo:42043:1,2007-01-02T19:30:00Z,28.9818,-94.9186,4.0,4.659839053,44.91274106,6.29,'11111222,11111222,11111222' 
TABS,ioos:station:wmo:42043:1,2007-01-02T20:00:00Z,28.9818,-94.9186,4.0,4.316676963,38.88752793,5.82,'11111222,11111222,11111222' 
TABS,ioos:station:wmo:42043:1,2007-01-02T20:30:00Z,28.9818,-94.9186,4.0,4.576658169,48.54287869,6.02,'11111222,11111222,11111222' 
TABS,ioos:station:wmo:42043:1,2007-01-02T21:00:00Z,28.9818,-94.9186,4.0,4.7349868,42.51757048,5.91,'11111222,11111222,11111222' 
TABS,ioos:station:wmo:42043:1,2007-01-02T21:30:00Z,28.9818,-94.9186,4.0,5.215409859,47.25303162,6.53,'11111222,11111222,11111222' 
TABS,ioos:station:wmo:42043:1,2007-01-02T22:00:00Z,28.9818,-94.9186,4.0,4.291677994,51.52751006,5.54,'11111222,11111222,11111222' 
TABS,ioos:station:wmo:42043:1,2007-01-02T22:30:00Z,28.9818,-94.9186,4.0,4.581571783,49.425508,6.16,'11111222,11111222,11111222' 
TABS,ioos:station:wmo:42043:1,2007-01-02T23:00:00Z,28.9818,-94.9186,4.0,4.234548382,41.93661806,5.5,'11111222,11111222,11111222' 
TABS,ioos:station:wmo:42043:1,2007-01-02T23:30:00Z,28.9818,-94.9186,4.0,4.9916931,54.62210222,6.23,'11111222,11111222,11111222' 
TABS,ioos:station:wmo:42043:1,2007-01-03T00:00:00Z,28.9818,-94.9186,4.0,5.084014162,52.99453035,6.62,'11111222,11111222,11111222' 
TABS,ioos:station:wmo:42043:1,2007-01-03T00:30:00Z,28.9818,-94.9186,4.0,5.26421884,73.21697418,6.53,'11111222,11111222,11111222' 
TABS,ioos:station:wmo:42043:1,2007-01-03T01:00:00Z,28.9818,-94.9186,4.0,4.815610034,79.83310031,6.3,'11111222,11111222,11111222' 
TABS,ioos:station:wmo:42043:1,2007-01-03T01:30:00Z,28.9818,-94.9186,4.0,4.743342703,84.31303775,6.7,'11111222,11111222,11111222' 
TABS,ioos:station:wmo:42043:1,2007-01-03T02:00:00Z,28.9818,-94.9186,4.0,5.518414627,83.23516759,6.99,'11111222,11111222,11111222' 
TABS,ioos:station:wmo:42043:1,2007-01-03T02:30:00Z,28.9818,-94.9186,4.0,5.008991915,79.18320204,6.76,'11111222,11111222,11111222' 
TABS,ioos:station:wmo:42043:1,2007-01-03T03:00:00Z,28.9818,-94.9186,4.0,4.955340553,87.33927057,6.37,'11111222,11111222,11111222' 
TABS,ioos:station:wmo:42043:1,2007-01-03T03:30:00Z,28.9818,-94.9186,4.0,4.706506135,81.93836067,5.72,'11111222,11111222,11111222' 
TABS,ioos:station:wmo:42043:1,2007-01-03T04:00:00Z,28.9818,-94.9186,4.0,4.403203379,72.96385777,5.68,'11111222,11111222,11111222' 
TABS,ioos:station:wmo:42043:1,2007-01-03T04:30:00Z,28.9818,-94.9186,4.0,4.185940754,63.61822929,5.37,'11111222,11111222,11111222' 
TABS,ioos:station:wmo:42043:1,2007-01-03T05:00:00Z,28.9818,-94.9186,4.0,3.877692613,77.79133241,4.89,'11111222,11111222,11111222' 
TABS,ioos:station:wmo:42043:1,2007-01-03T05:30:00Z,28.9818,-94.9186,4.0,3.914715826,65.07116324,5.17,'11111222,11111222,11111222' 
TABS,ioos:station:wmo:42043:1,2007-01-03T06:00:00Z,28.9818,-94.9186,4.0,4.731944632,58.39215075,5.66,'11111222,11111222,11111222' 
TABS,ioos:station:wmo:42043:1,2007-01-03T06:30:00Z,28.9818,-94.9186,4.0,4.595758914,55.99839194,5.61,'11111222,11111222,11111222' 
TABS,ioos:station:wmo:42043:1,2007-01-03T07:00:00Z,28.9818,-94.9186,4.0,4.548988899,57.11307416,5.66,'11111222,11111222,11111222' 
TABS,ioos:station:wmo:42043:1,2007-01-03T07:30:00Z,28.9818,-94.9186,4.0,4.361387394,59.55408761,5.77,'11111222,11111222,11111222' 
TABS,ioos:station:wmo:42043:1,2007-01-03T08:00:00Z,28.9818,-94.9186,4.0,4.100792606,59.68286973,4.94,'11111222,11111222,11111222' 
TABS,ioos:station:wmo:42043:1,2007-01-03T08:30:00Z,28.9818,-94.9186,4.0,4.863846215,54.70847466,6.01,'11111222,11111222,11111222' 
TABS,ioos:station:wmo:42043:1,2007-01-03T09:00:00Z,28.9818,-94.9186,4.0,4.690682253,58.51218335,5.7,'11111222,11111222,11111222' 
TABS,ioos:station:wmo:42043:1,2007-01-03T09:30:00Z,28.9818,-94.9186,4.0,4.570787678,58.32645418,5.83,'11111222,11111222,11111222' 
TABS,ioos:station:wmo:42043:1,2007-01-03T10:00:00Z,28.9818,-94.9186,4.0,5.275490499,56.91204601,6.17,'11111222,11111222,11111222' 
TABS,ioos:station:wmo:42043:1,2007-01-03T10:30:00Z,28.9818,-94.9186,4.0,4.471509812,78.38811981,5.84,'11111222,11111222,11111222' 
TABS,ioos:station:wmo:42043:1,2007-01-03T11:00:00Z,28.9818,-94.9186,4.0,4.899489769,77.86401234,6.23,'11111222,11111222,11111222' 
TABS,ioos:station:wmo:42043:1,2007-01-03T11:30:00Z,28.9818,-94.9186,4.0,4.734828402,73.93786742,5.94,'11111222,11111222,11111222' 
TABS,ioos:station:wmo:42043:1,2007-01-03T12:00:00Z,28.9818,-94.9186,4.0,4.534710575,71.48476318,6.12,'11111222,11111222,11111222' 
TABS,ioos:station:wmo:42043:1,2007-01-03T12:30:00Z,28.9818,-94.9186,4.0,5.053711507,63.9416179,6.1,'11111222,11111222,11111222' 
TABS,ioos:station:wmo:42043:1,2007-01-03T13:00:00Z,28.9818,-94.9186,4.0,4.867792107,76.33448601,5.99,'11111222,11111222,11111222' 
TABS,ioos:station:wmo:42043:1,2007-01-03T13:30:00Z,28.9818,-94.9186,4.0,4.420904885,71.81057592,5.53,'11111222,11111222,11111222' 
TABS,ioos:station:wmo:42043:1,2007-01-03T14:00:00Z,28.9818,-94.9186,4.0,5.634509739,61.25122257,6.46,'11111222,11111222,11111222' 
TABS,ioos:station:wmo:42043:1,2007-01-03T14:30:00Z,28.9818,-94.9186,4.0,5.851034097,60.84993072,6.72,'11111222,11111222,11111222' 
TABS,ioos:station:wmo:42043:1,2007-01-03T15:00:00Z,28.9818,-94.9186,4.0,6.150715406,76.07633289,7.29,'11111222,11111222,11111222' 
TABS,ioos:station:wmo:42043:1,2007-01-03T15:30:00Z,28.9818,-94.9186,4.0,5.832752352,70.25990053,6.87,'11111222,11111222,11111222' 
TABS,ioos:station:wmo:42043:1,2007-01-03T16:00:00Z,28.9818,-94.9186,4.0,5.591082185,71.1109843,6.68,'11111222,11111222,11111222' 
TABS,ioos:station:wmo:42043:1,2007-01-03T16:30:00Z,28.9818,-94.9186,4.0,3.74766594,49.97877851,4.64,'11111222,11111222,11111222' 
TABS,ioos:station:wmo:42043:1,2007-01-03T17:00:00Z,28.9818,-94.9186,4.0,5.388524845,58.81707115,6.65,'11111222,11111222,11111222' 
TABS,ioos:station:wmo:42043:1,2007-01-03T17:30:00Z,28.9818,-94.9186,4.0,5.992003004,53.07239553,7.57,'11111222,11111222,11111222' 
TABS,ioos:station:wmo:42043:1,2007-01-03T18:00:00Z,28.9818,-94.9186,4.0,6.88168584,70.82745391,7.9,'11111222,11111222,11111222' 
TABS,ioos:station:wmo:42043:1,2007-01-03T18:30:00Z,28.9818,-94.9186,4.0,7.366586727,68.41486555,8.68,'11111222,11111222,11111222' 
TABS,ioos:station:wmo:42043:1,2007-01-03T19:00:00Z,28.9818,-94.9186,4.0,7.53655757,76.88533014,8.84,'11111222,11111222,11111222' 
TABS,ioos:station:wmo:42043:1,2007-01-03T19:30:00Z,28.9818,-94.9186,4.0,8.078867495,76.03217134,10.07,'11111222,11111222,11111222' 
TABS,ioos:station:wmo:42043:1,2007-01-03T20:00:00Z,28.9818,-94.9186,4.0,7.921521319,71.45031095,10.19,'11111222,11111222,11111222' 
TABS,ioos:station:wmo:42043:1,2007-01-03T20:30:00Z,28.9818,-94.9186,4.0,7.631677404,72.53810704,10.4,'11111222,11111222,11111222' 
TABS,ioos:station:wmo:42043:1,2007-01-03T21:00:00Z,28.9818,-94.9186,4.0,7.859471992,77.73173681,10.57,'11111222,11111222,11111222' 
TABS,ioos:station:wmo:42043:1,2007-01-03T21:30:00Z,28.9818,-94.9186,4.0,8.697476646,76.29889404,10.87,'11111222,11111222,11111222' 
TABS,ioos:station:wmo:42043:1,2007-01-03T22:00:00Z,28.9818,-94.9186,4.0,7.618464412,76.56530627,9.67,'11111222,11111222,11111222' 
TABS,ioos:station:wmo:42043:1,2007-01-03T22:30:00Z,28.9818,-94.9186,4.0,7.756313557,75.82004004,10.02,'11111222,11111222,11111222' 
TABS,ioos:station:wmo:42043:1,2007-01-03T23:00:00Z,28.9818,-94.9186,4.0,8.832287359,71.38004787,10.71,'11111222,11111222,11111222' 
TABS,ioos:station:wmo:42043:1,2007-01-03T23:30:00Z,28.9818,-94.9186,4.0,7.828186252,74.13464947,9.83,'11111222,11111222,11111222' 
TABS,ioos:station:wmo:42043:1,2007-01-04T00:00:00Z,28.9818,-94.9186,4.0,6.767037757,76.4972909,8.73,'11111222,11111222,11111222' 
TABS,ioos:station:wmo:42043:1,2007-01-04T00:30:00Z,28.9818,-94.9186,4.0,7.079802257,78.59444492,8.67,'11111222,11111222,11111222' 
TABS,ioos:station:wmo:42043:1,2007-01-04T01:00:00Z,28.9818,-94.9186,4.0,7.338426262,81.61553713,9.39,'11111222,11111222,11111222' 
TABS,ioos:station:wmo:42043:1,2007-01-04T01:30:00Z,28.9818,-94.9186,4.0,7.378163728,70.85250528,8.82,'11111222,11111222,11111222' 
TABS,ioos:station:wmo:42043:1,2007-01-04T02:00:00Z,28.9818,-94.9186,4.0,6.895636301,65.4043971,8.46,'11111222,11111222,11111222' 
TABS,ioos:station:wmo:42043:1,2007-01-04T02:30:00Z,28.9818,-94.9186,4.0,7.767013583,69.81484147,9.91,'11111222,11111222,11111222' 
TABS,ioos:station:wmo:42043:1,2007-01-04T03:00:00Z,28.9818,-94.9186,4.0,8.44618257,73.06646238,10.1,'11111222,11111222,11111222' 
TABS,ioos:station:wmo:42043:1,2007-01-04T03:30:00Z,28.9818,-94.9186,4.0,7.067595065,77.49717988,8.99,'11111222,11111222,11111222' 
TABS,ioos:station:wmo:42043:1,2007-01-04T04:00:00Z,28.9818,-94.9186,4.0,7.086677642,74.53176567,8.46,'11111222,11111222,11111222' 
TABS,ioos:station:wmo:42043:1,2007-01-04T04:30:00Z,28.9818,-94.9186,4.0,7.468667887,80.67600911,9.1,'11111222,11111222,11111222' 
TABS,ioos:station:wmo:42043:1,2007-01-04T05:00:00Z,28.9818,-94.9186,4.0,5.734849606,81.37497101,7.2,'11111222,11111222,11111222' 
TABS,ioos:station:wmo:42043:1,2007-01-04T05:30:00Z,28.9818,-94.9186,4.0,6.480069444,89.73432336,7.93,'11111222,11111222,11111222' 
TABS,ioos:station:wmo:42043:1,2007-01-04T06:00:00Z,28.9818,-94.9186,4.0,5.359561549,93.42337208,6.9,'11111222,11111222,11111222' 
TABS,ioos:station:wmo:42043:1,2007-01-04T06:30:00Z,28.9818,-94.9186,4.0,5.50858421,97.61566636,6.86,'11111222,11111222,11111222' 
TABS,ioos:station:wmo:42043:1,2007-01-04T07:00:00Z,28.9818,-94.9186,4.0,5.548342095,100.8040159,6.79,'11111222,11111222,11111222' 
TABS,ioos:station:wmo:42043:1,2007-01-04T07:30:00Z,28.9818,-94.9186,4.0,5.921908476,111.4963493,7.2,'11111222,11111222,11111222' 
TABS,ioos:station:wmo:42043:1,2007-01-04T08:00:00Z,28.9818,-94.9186,4.0,5.915285285,119.4689086,7.52,'11111222,11111222,11111222' 
TABS,ioos:station:wmo:42043:1,2007-01-04T08:30:00Z,28.9818,-94.9186,4.0,4.861872067,129.1570689,6.0,'11111222,11111222,11111222' 
TABS,ioos:station:wmo:42043:1,2007-01-04T09:00:00Z,28.9818,-94.9186,4.0,6.991208765,125.8047709,8.77,'11111222,11111222,11111222' 
TABS,ioos:station:wmo:42043:1,2007-01-04T09:30:00Z,28.9818,-94.9186,4.0,10.74925114,127.7444189,17.15,'11111222,11111222,11111222' 
TABS,ioos:station:wmo:42043:1,2007-01-04T10:00:00Z,28.9818,-94.9186,4.0,13.23527484,146.0580841,18.33,'11111222,11111222,11111222' 
TABS,ioos:station:wmo:42043:1,2007-01-04T10:30:00Z,28.9818,-94.9186,4.0,12.38316599,156.0847566,16.86,'11111222,11111222,11111222' 
TABS,ioos:station:wmo:42043:1,2007-01-04T11:00:00Z,28.9818,-94.9186,4.0,8.266444217,134.4611938,11.66,'11111222,11111222,11111222' 
TABS,ioos:station:wmo:42043:1,2007-01-04T11:30:00Z,28.9818,-94.9186,4.0,8.266444217,134.4611938,11.66,'11111222,11111222,11111222' 
TABS,ioos:station:wmo:42043:1,2007-01-04T12:00:00Z,28.9818,-94.9186,4.0,9.249745942,326.0177416,12.72,'11111222,11111222,11111222' 
TABS,ioos:station:wmo:42043:1,2007-01-04T12:30:00Z,28.9818,-94.9186,4.0,8.345903187,342.2813134,10.83,'11111222,11111222,11111222' 
TABS,ioos:station:wmo:42043:1,2007-01-04T13:00:00Z,28.9818,-94.9186,4.0,6.244437525,10.98579147,8.04,'11111222,11111222,11111222' 
TABS,ioos:station:wmo:42043:1,2007-01-04T13:30:00Z,28.9818,-94.9186,4.0,5.517463185,20.14254567,6.81,'11111222,11111222,11111222' 
TABS,ioos:station:wmo:42043:1,2007-01-04T14:00:00Z,28.9818,-94.9186,4.0,2.650679158,358.7027512,4.99,'11111222,11111222,11111222' 
TABS,ioos:station:wmo:42043:1,2007-01-04T14:30:00Z,28.9818,-94.9186,4.0,3.740975809,347.3381134,6.18,'11111222,11111222,11111222' 
TABS,ioos:station:wmo:42043:1,2007-01-04T15:00:00Z,28.9818,-94.9186,4.0,2.122851855,39.83982463,2.94,'11111222,11111222,11111222' 
TABS,ioos:station:wmo:42043:1,2007-01-04T15:30:00Z,28.9818,-94.9186,4.0,0.161554944,21.80114805,1.49,'11111222,11111222,11111222' 
TABS,ioos:station:wmo:42043:1,2007-01-04T16:00:00Z,28.9818,-94.9186,4.0,2.369324798,226.1971535,3.35,'11111222,11111222,11111222' 
TABS,ioos:station:wmo:42043:1,2007-01-04T16:30:00Z,28.9818,-94.9186,4.0,3.331561196,230.4807776,5.08,'11111222,11111222,11111222' 
TABS,ioos:station:wmo:42043:1,2007-01-04T17:00:00Z,28.9818,-94.9186,4.0,5.058557107,279.4436795,7.26,'11111222,11111222,11111222' 
TABS,ioos:station:wmo:42043:1,2007-01-04T17:30:00Z,28.9818,-94.9186,4.0,3.166101704,257.4123361,5.92,'11111222,11111222,11111222' 
TABS,ioos:station:wmo:42043:1,2007-01-04T18:00:00Z,28.9818,-94.9186,4.0,6.468709299,283.4991468,9.69,'11111222,11111222,11111222' 
TABS,ioos:station:wmo:42043:1,2007-01-04T18:30:00Z,28.9818,-94.9186,4.0,6.545448801,276.7558458,8.3,'11111222,11111222,11111222' 